Location: Hermaringen
(48.5952°N, 10.2585°E)
Time: 05:36:23
(UTC+00:00)

Courier 1B Rocket - All Passes

Search period start: 18 February 2026 00:00
Search period end: 28 February 2026 00:00
Orbit: 920 x 1201 km, 28.2° (Epoch: 17 February)

Date Brightness Start Highest point End Pass type
(mag) Time Alt. Az. Time Alt. Az. Time Alt. Az.
18 Feb - 19:49:18 10° SSW 19:51:08 11° S 19:53:00 10° SSE visible
19 Feb - 18:49:51 10° S 18:50:21 10° S 18:50:51 10° SSE visible
19 Feb - 20:40:59 10° SSW 20:42:19 11° S 20:43:40 10° S visible
20 Feb - 19:39:55 10° SSW 19:41:32 11° S 19:43:09 10° SSE visible
21 Feb - 18:39:25 10° S 18:40:46 11° S 18:42:06 10° SSE visible
23 Feb - 18:29:59 10° SSW 18:31:10 11° S 18:32:21 10° S visible
24 Feb - 17:29:13 10° S 17:30:25 11° S 17:31:37 10° SSE visible
25 Feb - 16:29:36 10° S 16:29:39 10° S 16:29:42 10° S daylight
26 Feb - 17:19:38 10° SSW 17:20:49 11° S 17:22:01 10° S daylight
27 Feb - 16:18:31 10° SSW 16:20:03 11° S 16:21:35 10° SSE daylight
